Voltar ao catálogo

CZ-6A DEB

AtivoPO
NORAD 60713·DEBRIS·🇨🇳 China

Lançado Aug 6, 2024 de Taiyuan Satellite Launch Center

Loading…

Próximas Passagens (próximas 24 horas)

TLE

AtualizadoSource: Space-Track

Época: Sep 14, 2026, 17:32 UTC

1 60713U 24140DS  26257.73061369  .00000111  00000-0  46009-4 0  9991
2 60713  89.0074 265.8043 0046142 235.9802 123.7002 14.19038700108299

Acompanhe CZ-6A DEB em tempo real com AllMySat

Download on the App Store